Volver al catálogo

COSMOS 1275 DEB

ActivoPO
NORAD 17631·DEBRIS·🇷🇺 Russia

Lanzado Jun 4, 1981 desde Plesetsk Cosmodrome

Loading…

Próximos Pases (próximas 24 horas)

TLE

ActualizadoSource: Space-Track

Época: Sep 14, 2026, 11:21 UTC

1 17631U 81053LA  26257.47340427  .00001112  00000-0  12267-2 0  9993
2 17631  82.9302 161.1456 0124635 198.4629 287.3635 13.67863759 53959

Sigue COSMOS 1275 DEB en tiempo real con AllMySat

Download on the App Store